Year,Month,Day,Hour,Minute,Value (Times are PST for temperature in C)
2017,05,04,00,00,12.80
2017,05,04,00,01,12.80
2017,05,04,00,02,12.80
2017,05,04,00,03,12.80
2017,05,04,00,04,12.80
2017,05,04,00,05,12.80
2017,05,04,00,06,12.80
2017,05,04,00,07,12.80
2017,05,04,00,08,12.80
2017,05,04,00,09,12.80
2017,05,04,00,10,12.80
2017,05,04,00,11,12.80
2017,05,04,00,12,12.80
2017,05,04,00,13,12.80
2017,05,04,00,14,12.80
2017,05,04,00,15,12.80
2017,05,04,00,16,12.80
2017,05,04,00,17,12.80
2017,05,04,00,18,12.80
2017,05,04,00,19,12.80
2017,05,04,00,20,12.80
2017,05,04,00,21,12.80
2017,05,04,00,22,12.80
2017,05,04,00,23,12.70
2017,05,04,00,24,12.70
2017,05,04,00,25,12.70
2017,05,04,00,26,12.80
2017,05,04,00,27,12.80
2017,05,04,00,28,12.80
2017,05,04,00,29,12.80
2017,05,04,00,30,12.80
2017,05,04,00,31,12.80
2017,05,04,00,32,12.80
2017,05,04,00,33,12.80
2017,05,04,00,34,12.80
2017,05,04,00,35,12.80
2017,05,04,00,36,12.80
2017,05,04,00,37,12.80
2017,05,04,00,38,12.80
2017,05,04,00,39,12.70
2017,05,04,00,40,12.70
2017,05,04,00,41,12.70
2017,05,04,00,42,12.70
2017,05,04,00,43,12.70
2017,05,04,00,44,12.70
2017,05,04,00,45,12.60
2017,05,04,00,46,12.60
2017,05,04,00,47,12.60
2017,05,04,00,48,12.60
2017,05,04,00,49,12.60
2017,05,04,00,50,12.70
2017,05,04,00,51,12.70
2017,05,04,00,52,12.80
2017,05,04,00,53,12.80
2017,05,04,00,54,12.80
2017,05,04,00,55,12.80
2017,05,04,00,56,12.80
2017,05,04,00,57,12.70
2017,05,04,00,58,12.70
2017,05,04,00,59,12.60
2017,05,04,01,00,12.70
2017,05,04,01,01,12.70
2017,05,04,01,02,12.70
2017,05,04,01,03,12.70
2017,05,04,01,04,12.70
2017,05,04,01,05,12.60
2017,05,04,01,06,12.70
2017,05,04,01,07,12.70
2017,05,04,01,08,12.80
2017,05,04,01,09,12.80
2017,05,04,01,10,12.80
2017,05,04,01,11,12.70
2017,05,04,01,12,12.70
2017,05,04,01,13,12.70
2017,05,04,01,14,12.70
2017,05,04,01,15,12.70
2017,05,04,01,16,12.70
2017,05,04,01,17,12.60
2017,05,04,01,18,12.60
2017,05,04,01,19,12.60
2017,05,04,01,20,12.60
2017,05,04,01,21,12.50
2017,05,04,01,22,12.50
2017,05,04,01,23,12.50
2017,05,04,01,24,12.60
2017,05,04,01,25,12.60
2017,05,04,01,26,12.60
2017,05,04,01,27,12.50
2017,05,04,01,28,12.50
2017,05,04,01,29,12.50
2017,05,04,01,30,12.50
2017,05,04,01,31,12.50
2017,05,04,01,32,12.50
2017,05,04,01,33,12.50
2017,05,04,01,34,12.40
2017,05,04,01,35,12.40
2017,05,04,01,36,12.40
2017,05,04,01,37,12.40
2017,05,04,01,38,12.40
2017,05,04,01,39,12.40
2017,05,04,01,40,12.40
2017,05,04,01,41,12.40
2017,05,04,01,42,12.40
2017,05,04,01,43,12.40
2017,05,04,01,44,12.30
2017,05,04,01,45,12.30
2017,05,04,01,46,12.30
2017,05,04,01,47,12.30
2017,05,04,01,48,12.30
2017,05,04,01,49,12.30
2017,05,04,01,50,12.30
2017,05,04,01,51,12.30
2017,05,04,01,52,12.30
2017,05,04,01,53,12.30
2017,05,04,01,54,12.30
2017,05,04,01,55,12.30
2017,05,04,01,56,12.30
2017,05,04,01,57,12.30
2017,05,04,01,58,12.30
2017,05,04,01,59,12.30
2017,05,04,02,00,12.20
2017,05,04,02,01,12.20
2017,05,04,02,02,12.20
2017,05,04,02,03,12.20
2017,05,04,02,04,12.20
2017,05,04,02,05,12.20
2017,05,04,02,06,12.20
2017,05,04,02,07,12.20
2017,05,04,02,08,12.20
2017,05,04,02,09,12.20
2017,05,04,02,10,12.20
2017,05,04,02,11,12.20
2017,05,04,02,12,12.20
2017,05,04,02,13,12.20
2017,05,04,02,14,12.10
2017,05,04,02,15,12.10
2017,05,04,02,16,12.10
2017,05,04,02,17,12.10
2017,05,04,02,18,12.10
2017,05,04,02,19,12.00
2017,05,04,02,20,12.00
2017,05,04,02,21,12.00
2017,05,04,02,22,12.00
2017,05,04,02,23,12.00
2017,05,04,02,24,12.00
2017,05,04,02,25,12.00
2017,05,04,02,26,12.00
2017,05,04,02,27,11.90
2017,05,04,02,28,11.90
2017,05,04,02,29,11.90
2017,05,04,02,30,11.90
2017,05,04,02,31,11.90
2017,05,04,02,32,11.90
2017,05,04,02,33,11.90
2017,05,04,02,34,11.90
2017,05,04,02,35,11.90
2017,05,04,02,36,11.80
2017,05,04,02,37,11.80
2017,05,04,02,38,11.80
2017,05,04,02,39,11.80
2017,05,04,02,40,11.80
2017,05,04,02,41,11.80
2017,05,04,02,42,11.80
2017,05,04,02,43,11.80
2017,05,04,02,44,11.80
2017,05,04,02,45,11.80
2017,05,04,02,46,11.80
2017,05,04,02,47,11.80
2017,05,04,02,48,11.80
2017,05,04,02,49,11.80
2017,05,04,02,50,11.80
2017,05,04,02,51,11.80
2017,05,04,02,52,11.80
2017,05,04,02,53,11.80
2017,05,04,02,54,11.80
2017,05,04,02,55,11.80
2017,05,04,02,56,11.80
2017,05,04,02,57,11.80
2017,05,04,02,58,11.80
2017,05,04,02,59,11.80
2017,05,04,03,00,11.80
2017,05,04,03,01,11.80
2017,05,04,03,02,11.90
2017,05,04,03,03,11.90
2017,05,04,03,04,11.90
2017,05,04,03,05,11.90
2017,05,04,03,06,11.90
2017,05,04,03,07,11.90
2017,05,04,03,08,11.90
2017,05,04,03,09,11.90
2017,05,04,03,10,11.90
2017,05,04,03,11,11.90
2017,05,04,03,12,11.90
2017,05,04,03,13,11.80
2017,05,04,03,14,11.90
2017,05,04,03,15,11.90
2017,05,04,03,16,11.90
2017,05,04,03,17,11.90
2017,05,04,03,18,11.90
2017,05,04,03,19,11.90
2017,05,04,03,20,11.90
2017,05,04,03,21,11.80
2017,05,04,03,22,11.80
2017,05,04,03,23,11.80
2017,05,04,03,24,11.80
2017,05,04,03,25,11.80
2017,05,04,03,26,11.80
2017,05,04,03,27,11.80
2017,05,04,03,28,11.80
2017,05,04,03,29,11.80
2017,05,04,03,30,11.80
2017,05,04,03,31,11.80
2017,05,04,03,32,11.80
2017,05,04,03,33,11.70
2017,05,04,03,34,11.70
2017,05,04,03,35,11.70
2017,05,04,03,36,11.70
2017,05,04,03,37,11.70
2017,05,04,03,38,11.70
2017,05,04,03,39,11.70
2017,05,04,03,40,11.70
2017,05,04,03,41,11.70
2017,05,04,03,42,11.70
2017,05,04,03,43,11.70
2017,05,04,03,44,11.70
2017,05,04,03,45,11.70
2017,05,04,03,46,11.70
2017,05,04,03,47,11.70
2017,05,04,03,48,11.80
2017,05,04,03,49,11.80
2017,05,04,03,50,11.80
2017,05,04,03,51,11.80
2017,05,04,03,52,11.80
2017,05,04,03,53,11.80
2017,05,04,03,54,11.80
2017,05,04,03,55,11.90
2017,05,04,03,56,11.90
2017,05,04,03,57,11.90
2017,05,04,03,58,12.00
2017,05,04,03,59,12.00
2017,05,04,04,00,12.00
2017,05,04,04,01,12.00
2017,05,04,04,02,12.10
2017,05,04,04,03,12.10
2017,05,04,04,04,12.10
2017,05,04,04,05,12.10
2017,05,04,04,06,12.10
2017,05,04,04,07,12.10
2017,05,04,04,08,12.10
2017,05,04,04,09,12.10
2017,05,04,04,10,12.10
2017,05,04,04,11,12.10
2017,05,04,04,12,12.10
2017,05,04,04,13,12.10
2017,05,04,04,14,12.10
2017,05,04,04,15,12.10
2017,05,04,04,16,12.10
2017,05,04,04,17,12.10
2017,05,04,04,18,12.10
2017,05,04,04,19,12.10
2017,05,04,04,20,12.10
2017,05,04,04,21,12.10
2017,05,04,04,22,12.10
2017,05,04,04,23,12.10
2017,05,04,04,24,12.00
2017,05,04,04,25,12.00
2017,05,04,04,26,12.00
2017,05,04,04,27,12.00
2017,05,04,04,28,12.00
2017,05,04,04,29,12.00
2017,05,04,04,30,11.90
2017,05,04,04,31,11.90
2017,05,04,04,32,11.90
2017,05,04,04,33,11.90
2017,05,04,04,34,11.90
2017,05,04,04,35,11.90
2017,05,04,04,36,11.90
2017,05,04,04,37,11.90
2017,05,04,04,38,11.90
2017,05,04,04,39,11.90
2017,05,04,04,40,11.80
2017,05,04,04,41,11.80
2017,05,04,04,42,11.80
2017,05,04,04,43,11.80
2017,05,04,04,44,11.80
2017,05,04,04,45,11.80
2017,05,04,04,46,11.80
2017,05,04,04,47,11.80
2017,05,04,04,48,11.80
2017,05,04,04,49,11.80
2017,05,04,04,50,11.80
2017,05,04,04,51,11.80
2017,05,04,04,52,11.80
2017,05,04,04,53,11.80
2017,05,04,04,54,11.80
2017,05,04,04,55,11.70
2017,05,04,04,56,11.70
2017,05,04,04,57,11.60
2017,05,04,04,58,11.60
2017,05,04,04,59,11.60
2017,05,04,05,00,11.60
2017,05,04,05,01,11.70
2017,05,04,05,02,11.70
2017,05,04,05,03,11.70
2017,05,04,05,04,11.70
2017,05,04,05,05,11.70
2017,05,04,05,06,11.70
2017,05,04,05,07,11.70
2017,05,04,05,08,11.70
2017,05,04,05,09,11.70
2017,05,04,05,10,11.80
2017,05,04,05,11,11.80
2017,05,04,05,12,11.80
2017,05,04,05,13,11.80
2017,05,04,05,14,11.80
2017,05,04,05,15,11.80
2017,05,04,05,16,11.80
2017,05,04,05,17,11.70
2017,05,04,05,18,11.70
2017,05,04,05,19,11.70
2017,05,04,05,20,11.70
2017,05,04,05,21,11.70
2017,05,04,05,22,11.70
2017,05,04,05,23,11.60
2017,05,04,05,24,11.60
2017,05,04,05,25,11.60
2017,05,04,05,26,11.60
2017,05,04,05,27,11.60
2017,05,04,05,28,11.60
2017,05,04,05,29,11.60
2017,05,04,05,30,11.60
2017,05,04,05,31,11.60
2017,05,04,05,32,11.60
2017,05,04,05,33,11.60
2017,05,04,05,34,11.60
2017,05,04,05,35,11.60
2017,05,04,05,36,11.60
2017,05,04,05,37,11.60
2017,05,04,05,38,11.60
2017,05,04,05,39,11.50
2017,05,04,05,40,11.40
2017,05,04,05,41,11.40
2017,05,04,05,42,11.40
2017,05,04,05,43,11.40
2017,05,04,05,44,11.40
2017,05,04,05,45,11.40
2017,05,04,05,46,11.40
2017,05,04,05,47,11.40
2017,05,04,05,48,11.40
2017,05,04,05,49,11.30
2017,05,04,05,50,11.30
2017,05,04,05,51,11.30
2017,05,04,05,52,11.30
2017,05,04,05,53,11.30
2017,05,04,05,54,11.30
2017,05,04,05,55,11.30
2017,05,04,05,56,11.30
2017,05,04,05,57,11.30
2017,05,04,05,58,11.30
2017,05,04,05,59,11.30
2017,05,04,06,00,11.30
2017,05,04,06,01,11.30
2017,05,04,06,02,11.30
2017,05,04,06,03,11.30
2017,05,04,06,04,11.30
2017,05,04,06,05,11.30
2017,05,04,06,06,11.30
2017,05,04,06,07,11.30
2017,05,04,06,08,11.30
2017,05,04,06,09,11.40
2017,05,04,06,10,11.40
2017,05,04,06,11,11.40
2017,05,04,06,12,11.40
2017,05,04,06,13,11.40
2017,05,04,06,14,11.40
2017,05,04,06,15,11.40
2017,05,04,06,16,11.40
2017,05,04,06,17,11.40
2017,05,04,06,18,11.40
2017,05,04,06,19,11.40
2017,05,04,06,20,11.40
2017,05,04,06,21,11.40
2017,05,04,06,22,11.40
2017,05,04,06,23,11.40
2017,05,04,06,24,11.40
2017,05,04,06,25,11.50
2017,05,04,06,26,11.60
2017,05,04,06,27,11.60
2017,05,04,06,28,11.60
2017,05,04,06,29,11.70
2017,05,04,06,30,11.80
2017,05,04,06,31,11.80
2017,05,04,06,32,11.80
2017,05,04,06,33,11.90
2017,05,04,06,34,11.90
2017,05,04,06,35,12.00
2017,05,04,06,36,12.00
2017,05,04,06,37,12.10
2017,05,04,06,38,12.10
2017,05,04,06,39,12.10
2017,05,04,06,40,12.10
2017,05,04,06,41,12.00
2017,05,04,06,42,12.00
2017,05,04,06,43,12.00
2017,05,04,06,44,11.90
2017,05,04,06,45,11.90
2017,05,04,06,46,12.00
2017,05,04,06,47,12.00
2017,05,04,06,48,12.00
2017,05,04,06,49,11.90
2017,05,04,06,50,11.90
2017,05,04,06,51,11.90
2017,05,04,06,52,11.80
2017,05,04,06,53,11.80
2017,05,04,06,54,11.80
2017,05,04,06,55,11.80
2017,05,04,06,56,11.80
2017,05,04,06,57,11.80
2017,05,04,06,58,11.80
2017,05,04,06,59,11.80
2017,05,04,07,00,11.90
2017,05,04,07,01,11.90
2017,05,04,07,02,12.00
2017,05,04,07,03,12.10
2017,05,04,07,04,12.10
2017,05,04,07,05,12.20
2017,05,04,07,06,12.20
2017,05,04,07,07,12.30
2017,05,04,07,08,12.30
2017,05,04,07,09,12.30
2017,05,04,07,10,12.40
2017,05,04,07,11,12.50
2017,05,04,07,12,12.50
2017,05,04,07,13,12.60
2017,05,04,07,14,12.70
2017,05,04,07,15,12.80
2017,05,04,07,16,12.80
2017,05,04,07,17,12.80
2017,05,04,07,18,12.90
2017,05,04,07,19,13.00
2017,05,04,07,20,13.00
2017,05,04,07,21,13.00
2017,05,04,07,22,13.10
2017,05,04,07,23,13.10
2017,05,04,07,24,13.10
2017,05,04,07,25,13.20
2017,05,04,07,26,13.20
2017,05,04,07,27,13.20
2017,05,04,07,28,13.20
2017,05,04,07,29,13.30
2017,05,04,07,30,13.30
2017,05,04,07,31,13.40
2017,05,04,07,32,13.40
2017,05,04,07,33,13.40
2017,05,04,07,34,13.50
2017,05,04,07,35,13.50
2017,05,04,07,36,13.50
2017,05,04,07,37,13.60
2017,05,04,07,38,13.60
2017,05,04,07,39,13.70
2017,05,04,07,40,13.70
2017,05,04,07,41,13.70
2017,05,04,07,42,13.80
2017,05,04,07,43,13.90
2017,05,04,07,44,13.90
2017,05,04,07,45,14.00
2017,05,04,07,46,14.00
2017,05,04,07,47,14.10
2017,05,04,07,48,14.20
2017,05,04,07,49,14.30
2017,05,04,07,50,14.30
2017,05,04,07,51,14.40
2017,05,04,07,52,14.50
2017,05,04,07,53,14.50
2017,05,04,07,54,14.60
2017,05,04,07,55,14.60
2017,05,04,07,56,14.60
2017,05,04,07,57,14.70
2017,05,04,07,58,14.70
2017,05,04,07,59,14.70
2017,05,04,08,00,14.80
2017,05,04,08,01,14.80
2017,05,04,08,02,14.70
2017,05,04,08,03,14.70
2017,05,04,08,04,14.70
2017,05,04,08,05,14.70
2017,05,04,08,06,14.80
2017,05,04,08,07,14.80
2017,05,04,08,08,14.80
2017,05,04,08,09,14.80
2017,05,04,08,10,14.90
2017,05,04,08,11,14.90
2017,05,04,08,12,14.80
2017,05,04,08,13,14.80
2017,05,04,08,14,14.80
2017,05,04,08,15,14.90
2017,05,04,08,16,14.90
2017,05,04,08,17,15.00
2017,05,04,08,18,15.00
2017,05,04,08,19,15.10
2017,05,04,08,20,15.20
2017,05,04,08,21,15.20
2017,05,04,08,22,15.30
2017,05,04,08,23,15.30
2017,05,04,08,24,15.30
2017,05,04,08,25,15.40
2017,05,04,08,26,15.40
2017,05,04,08,27,15.40
2017,05,04,08,28,15.50
2017,05,04,08,29,15.50
2017,05,04,08,30,15.50
2017,05,04,08,31,15.40
2017,05,04,08,32,15.40
2017,05,04,08,33,15.40
2017,05,04,08,34,15.40
2017,05,04,08,35,15.40
2017,05,04,08,36,15.50
2017,05,04,08,37,15.50
2017,05,04,08,38,15.50
2017,05,04,08,39,15.50
2017,05,04,08,40,15.40
2017,05,04,08,41,15.50
2017,05,04,08,42,15.50
2017,05,04,08,43,15.50
2017,05,04,08,44,15.60
2017,05,04,08,45,15.70
2017,05,04,08,46,15.70
2017,05,04,08,47,15.70
2017,05,04,08,48,15.80
2017,05,04,08,49,15.80
2017,05,04,08,50,15.80
2017,05,04,08,51,15.80
2017,05,04,08,52,15.80
2017,05,04,08,53,15.80
2017,05,04,08,54,15.80
2017,05,04,08,55,15.80
2017,05,04,08,56,15.80
2017,05,04,08,57,15.80
2017,05,04,08,58,15.90
2017,05,04,08,59,15.90
2017,05,04,09,00,15.90
2017,05,04,09,01,15.80
2017,05,04,09,02,15.80
2017,05,04,09,03,15.80
2017,05,04,09,04,15.70
2017,05,04,09,05,15.70
2017,05,04,09,06,15.80
2017,05,04,09,07,15.70
2017,05,04,09,08,15.70
2017,05,04,09,09,15.70
2017,05,04,09,10,15.70
2017,05,04,09,11,15.70
2017,05,04,09,12,15.70
2017,05,04,09,13,15.70
2017,05,04,09,14,15.80
2017,05,04,09,15,15.80
2017,05,04,09,16,15.80
2017,05,04,09,17,15.70
2017,05,04,09,18,15.70
2017,05,04,09,19,15.70
2017,05,04,09,20,15.80
2017,05,04,09,21,15.80
2017,05,04,09,22,15.80
2017,05,04,09,23,15.80
2017,05,04,09,24,15.80
2017,05,04,09,25,16.00
2017,05,04,09,26,16.10
2017,05,04,09,27,16.20
2017,05,04,09,28,16.30
2017,05,04,09,29,16.30
2017,05,04,09,30,16.40
2017,05,04,09,31,16.20
2017,05,04,09,32,16.10
2017,05,04,09,33,16.10
2017,05,04,09,34,16.10
2017,05,04,09,35,16.00
2017,05,04,09,36,15.90
2017,05,04,09,37,16.00
2017,05,04,09,38,16.10
2017,05,04,09,39,16.20
2017,05,04,09,40,16.20
2017,05,04,09,41,16.20
2017,05,04,09,42,16.20
2017,05,04,09,43,16.30
2017,05,04,09,44,16.40
2017,05,04,09,45,16.40
2017,05,04,09,46,16.50
2017,05,04,09,47,16.60
2017,05,04,09,48,16.50
2017,05,04,09,49,16.40
2017,05,04,09,50,16.60
2017,05,04,09,51,16.70
2017,05,04,09,52,16.70
2017,05,04,09,53,16.70
2017,05,04,09,54,16.70
2017,05,04,09,55,16.70
2017,05,04,09,56,16.80
2017,05,04,09,57,16.90
2017,05,04,09,58,17.00
2017,05,04,09,59,16.90
2017,05,04,10,00,17.00
2017,05,04,10,01,17.10
2017,05,04,10,02,17.20
2017,05,04,10,03,17.20
2017,05,04,10,04,17.10
2017,05,04,10,05,17.10
2017,05,04,10,06,17.10
2017,05,04,10,07,17.10
2017,05,04,10,08,17.00
2017,05,04,10,09,17.00
2017,05,04,10,10,17.00
2017,05,04,10,11,16.80
2017,05,04,10,12,16.70
2017,05,04,10,13,16.80
2017,05,04,10,14,16.80
2017,05,04,10,15,16.90
2017,05,04,10,16,16.90
2017,05,04,10,17,16.90
2017,05,04,10,18,16.90
2017,05,04,10,19,16.90
2017,05,04,10,20,16.90
2017,05,04,10,21,16.90
2017,05,04,10,22,16.90
2017,05,04,10,23,16.90
2017,05,04,10,24,16.90
2017,05,04,10,25,16.90
2017,05,04,10,26,17.00
2017,05,04,10,27,17.10
2017,05,04,10,28,17.20
2017,05,04,10,29,17.20
2017,05,04,10,30,17.10
2017,05,04,10,31,17.00
2017,05,04,10,32,17.00
2017,05,04,10,33,16.90
2017,05,04,10,34,16.90
2017,05,04,10,35,17.00
2017,05,04,10,36,17.20
2017,05,04,10,37,17.20
2017,05,04,10,38,17.30
2017,05,04,10,39,17.30
2017,05,04,10,40,17.40
2017,05,04,10,41,17.50
2017,05,04,10,42,17.40
2017,05,04,10,43,17.30
2017,05,04,10,44,17.40
2017,05,04,10,45,17.40
2017,05,04,10,46,17.40
2017,05,04,10,47,17.30
2017,05,04,10,48,17.30
2017,05,04,10,49,17.30
2017,05,04,10,50,17.30
2017,05,04,10,51,17.30
2017,05,04,10,52,17.30
2017,05,04,10,53,17.30
2017,05,04,10,54,17.30
2017,05,04,10,55,17.30
2017,05,04,10,56,17.40
2017,05,04,10,57,17.50
2017,05,04,10,58,17.70
2017,05,04,10,59,17.90
2017,05,04,11,00,18.00
2017,05,04,11,01,18.10
2017,05,04,11,02,18.10
2017,05,04,11,03,18.10
2017,05,04,11,04,18.00
2017,05,04,11,05,17.90
2017,05,04,11,06,18.00
2017,05,04,11,07,18.10
2017,05,04,11,08,18.20
2017,05,04,11,09,18.20
2017,05,04,11,10,18.10
2017,05,04,11,11,18.00
2017,05,04,11,12,17.90
2017,05,04,11,13,17.90
2017,05,04,11,14,17.90
2017,05,04,11,15,17.90
2017,05,04,11,16,17.90
2017,05,04,11,17,17.80
2017,05,04,11,18,17.80
2017,05,04,11,19,17.90
2017,05,04,11,20,17.90
2017,05,04,11,21,17.80
2017,05,04,11,22,17.80
2017,05,04,11,23,17.80
2017,05,04,11,24,18.00
2017,05,04,11,25,18.10
2017,05,04,11,26,18.30
2017,05,04,11,27,18.30
2017,05,04,11,28,18.30
2017,05,04,11,29,18.30
2017,05,04,11,30,18.20
2017,05,04,11,31,18.20
2017,05,04,11,32,18.10
2017,05,04,11,33,17.90
2017,05,04,11,34,17.70
2017,05,04,11,35,17.70
2017,05,04,11,36,17.60
2017,05,04,11,37,17.50
2017,05,04,11,38,17.60
2017,05,04,11,39,17.70
2017,05,04,11,40,17.80
2017,05,04,11,41,17.90
2017,05,04,11,42,17.90
2017,05,04,11,43,17.90
2017,05,04,11,44,17.90
2017,05,04,11,45,18.00
2017,05,04,11,46,18.10
2017,05,04,11,47,18.20
2017,05,04,11,48,18.20
2017,05,04,11,49,18.10
2017,05,04,11,50,18.10
2017,05,04,11,51,18.20
2017,05,04,11,52,18.40
2017,05,04,11,53,18.40
2017,05,04,11,54,18.40
2017,05,04,11,55,18.40
2017,05,04,11,56,18.40
2017,05,04,11,57,18.50
2017,05,04,11,58,18.50
2017,05,04,11,59,18.50
2017,05,04,12,00,18.60
2017,05,04,12,01,18.70
2017,05,04,12,02,18.80
2017,05,04,12,03,18.90
2017,05,04,12,04,19.00
2017,05,04,12,05,19.10
2017,05,04,12,06,19.20
2017,05,04,12,07,19.20
2017,05,04,12,08,19.20
2017,05,04,12,09,19.10
2017,05,04,12,10,19.10
2017,05,04,12,11,19.10
2017,05,04,12,12,19.00
2017,05,04,12,13,18.90
2017,05,04,12,14,18.90
2017,05,04,12,15,19.00
2017,05,04,12,16,19.10
2017,05,04,12,17,19.10
2017,05,04,12,18,19.10
2017,05,04,12,19,19.10
2017,05,04,12,20,19.00
2017,05,04,12,21,18.90
2017,05,04,12,22,18.90
2017,05,04,12,23,18.90
2017,05,04,12,24,18.80
2017,05,04,12,25,18.80
2017,05,04,12,26,18.90
2017,05,04,12,27,19.10
2017,05,04,12,28,19.10
2017,05,04,12,29,19.20
2017,05,04,12,30,19.10
2017,05,04,12,31,19.20
2017,05,04,12,32,19.20
2017,05,04,12,33,19.20
2017,05,04,12,34,19.20
2017,05,04,12,35,19.20
2017,05,04,12,36,19.20
2017,05,04,12,37,19.20
2017,05,04,12,38,19.40
2017,05,04,12,39,19.50
2017,05,04,12,40,19.50
2017,05,04,12,41,19.50
2017,05,04,12,42,19.50
2017,05,04,12,43,19.40
2017,05,04,12,44,19.40
2017,05,04,12,45,19.30
2017,05,04,12,46,19.30
2017,05,04,12,47,19.40
2017,05,04,12,48,19.50
2017,05,04,12,49,19.50
2017,05,04,12,50,19.60
2017,05,04,12,51,19.50
2017,05,04,12,52,19.50
2017,05,04,12,53,19.40
2017,05,04,12,54,19.30
2017,05,04,12,55,19.20
2017,05,04,12,56,19.30
2017,05,04,12,57,19.40
2017,05,04,12,58,19.50
2017,05,04,12,59,19.50
2017,05,04,13,00,19.60
2017,05,04,13,01,19.50
2017,05,04,13,02,19.30
2017,05,04,13,03,19.20
2017,05,04,13,04,19.20
2017,05,04,13,05,19.30
2017,05,04,13,06,19.40
2017,05,04,13,07,19.50
2017,05,04,13,08,19.60
2017,05,04,13,09,19.70
2017,05,04,13,10,19.90
2017,05,04,13,11,20.00
2017,05,04,13,12,20.10
2017,05,04,13,13,20.00
2017,05,04,13,14,20.00
2017,05,04,13,15,20.10
2017,05,04,13,16,20.10
2017,05,04,13,17,20.10
2017,05,04,13,18,20.10
2017,05,04,13,19,20.10
2017,05,04,13,20,20.20
2017,05,04,13,21,20.30
2017,05,04,13,22,20.30
2017,05,04,13,23,20.20
2017,05,04,13,24,20.20
2017,05,04,13,25,20.30
2017,05,04,13,26,20.30
2017,05,04,13,27,20.20
2017,05,04,13,28,20.20
2017,05,04,13,29,20.20
2017,05,04,13,30,20.20
2017,05,04,13,31,20.20
2017,05,04,13,32,20.00
2017,05,04,13,33,19.90
2017,05,04,13,34,19.90
2017,05,04,13,35,19.90
2017,05,04,13,36,19.90
2017,05,04,13,37,20.00
2017,05,04,13,38,20.00
2017,05,04,13,39,19.90
2017,05,04,13,40,19.90
2017,05,04,13,41,19.90
2017,05,04,13,42,19.90
2017,05,04,13,43,19.90
2017,05,04,13,44,19.90
2017,05,04,13,45,20.00
2017,05,04,13,46,20.20
2017,05,04,13,47,20.30
2017,05,04,13,48,20.40
2017,05,04,13,49,20.50
2017,05,04,13,50,20.50
2017,05,04,13,51,20.50
2017,05,04,13,52,20.50
2017,05,04,13,53,20.40
2017,05,04,13,54,20.40
2017,05,04,13,55,20.40
2017,05,04,13,56,20.50
2017,05,04,13,57,20.60
2017,05,04,13,58,20.70
2017,05,04,13,59,20.70
2017,05,04,14,00,20.60
2017,05,04,14,01,20.70
2017,05,04,14,02,20.70
2017,05,04,14,03,20.70
2017,05,04,14,04,20.70
2017,05,04,14,05,20.80
2017,05,04,14,06,20.90
2017,05,04,14,07,20.80
2017,05,04,14,08,20.60
2017,05,04,14,09,20.50
2017,05,04,14,10,20.40
2017,05,04,14,11,20.50
2017,05,04,14,12,20.50
2017,05,04,14,13,20.60
2017,05,04,14,14,20.70
2017,05,04,14,15,20.80
2017,05,04,14,16,21.00
2017,05,04,14,17,21.00
2017,05,04,14,18,20.90
2017,05,04,14,19,20.80
2017,05,04,14,20,20.80
2017,05,04,14,21,20.80
2017,05,04,14,22,20.90
2017,05,04,14,23,21.00
2017,05,04,14,24,21.10
2017,05,04,14,25,21.30
2017,05,04,14,26,21.30
2017,05,04,14,27,21.40
2017,05,04,14,28,21.60
2017,05,04,14,29,21.70
2017,05,04,14,30,21.70
2017,05,04,14,31,21.80
2017,05,04,14,32,21.90
2017,05,04,14,33,22.00
2017,05,04,14,34,22.00
2017,05,04,14,35,22.10
2017,05,04,14,36,22.10
2017,05,04,14,37,22.10
2017,05,04,14,38,22.10
2017,05,04,14,39,22.00
2017,05,04,14,40,22.00
2017,05,04,14,41,22.00
2017,05,04,14,42,21.90
2017,05,04,14,43,21.80
2017,05,04,14,44,21.70
2017,05,04,14,45,21.80
2017,05,04,14,46,21.70
2017,05,04,14,47,21.80
2017,05,04,14,48,21.80
2017,05,04,14,49,21.90
2017,05,04,14,50,22.00
2017,05,04,14,51,22.00
2017,05,04,14,52,22.10
2017,05,04,14,53,22.10
2017,05,04,14,54,22.10
2017,05,04,14,55,22.20
2017,05,04,14,56,22.10
2017,05,04,14,57,22.10
2017,05,04,14,58,22.00
2017,05,04,14,59,22.00
2017,05,04,15,00,22.00
2017,05,04,15,01,21.90
2017,05,04,15,02,21.90
2017,05,04,15,03,21.90
2017,05,04,15,04,21.90
2017,05,04,15,05,22.00
2017,05,04,15,06,22.10
2017,05,04,15,07,22.20
2017,05,04,15,08,22.20
2017,05,04,15,09,22.20
2017,05,04,15,10,22.10
2017,05,04,15,11,22.00
2017,05,04,15,12,22.00
2017,05,04,15,13,22.10
2017,05,04,15,14,22.00
2017,05,04,15,15,21.90
2017,05,04,15,16,21.80
2017,05,04,15,17,21.90
2017,05,04,15,18,21.90
2017,05,04,15,19,21.90
2017,05,04,15,20,21.90
2017,05,04,15,21,21.90
2017,05,04,15,22,21.80
2017,05,04,15,23,21.90
2017,05,04,15,24,22.10
2017,05,04,15,25,22.20
2017,05,04,15,26,22.20
2017,05,04,15,27,22.30
2017,05,04,15,28,22.20
2017,05,04,15,29,22.20
2017,05,04,15,30,22.20
2017,05,04,15,31,22.20
2017,05,04,15,32,22.20
2017,05,04,15,33,22.10
2017,05,04,15,34,22.10
2017,05,04,15,35,22.20
2017,05,04,15,36,22.20
2017,05,04,15,37,22.40
2017,05,04,15,38,22.50
2017,05,04,15,39,22.50
2017,05,04,15,40,22.50
2017,05,04,15,41,22.40
2017,05,04,15,42,22.40
2017,05,04,15,43,22.40
2017,05,04,15,44,22.50
2017,05,04,15,45,22.50
2017,05,04,15,46,22.50
2017,05,04,15,47,22.40
2017,05,04,15,48,22.40
2017,05,04,15,49,22.30
2017,05,04,15,50,22.40
2017,05,04,15,51,22.50
2017,05,04,15,52,22.50
2017,05,04,15,53,22.60
2017,05,04,15,54,22.60
2017,05,04,15,55,22.70
2017,05,04,15,56,22.80
2017,05,04,15,57,22.90
2017,05,04,15,58,23.00
2017,05,04,15,59,23.10
2017,05,04,16,00,23.20
2017,05,04,16,01,23.20
2017,05,04,16,02,23.30
2017,05,04,16,03,23.30
2017,05,04,16,04,23.20
2017,05,04,16,05,23.20
2017,05,04,16,06,23.20
2017,05,04,16,07,23.20
2017,05,04,16,08,23.20
2017,05,04,16,09,23.20
2017,05,04,16,10,23.10
2017,05,04,16,11,23.10
2017,05,04,16,12,23.00
2017,05,04,16,13,22.90
2017,05,04,16,14,22.80
2017,05,04,16,15,22.80
2017,05,04,16,16,22.80
2017,05,04,16,17,22.80
2017,05,04,16,18,22.80
2017,05,04,16,19,22.90
2017,05,04,16,20,22.90
2017,05,04,16,21,23.00
2017,05,04,16,22,23.10
2017,05,04,16,23,23.10
2017,05,04,16,24,23.10
2017,05,04,16,25,23.10
2017,05,04,16,26,23.10
2017,05,04,16,27,23.20
2017,05,04,16,28,23.10
2017,05,04,16,29,23.10
2017,05,04,16,30,23.10
2017,05,04,16,31,23.10
2017,05,04,16,32,23.10
2017,05,04,16,33,23.10
2017,05,04,16,34,23.10
2017,05,04,16,35,23.10
2017,05,04,16,36,23.10
2017,05,04,16,37,23.10
2017,05,04,16,38,23.00
2017,05,04,16,39,22.90
2017,05,04,16,40,22.90
2017,05,04,16,41,22.90
2017,05,04,16,42,22.80
2017,05,04,16,43,22.60
2017,05,04,16,44,22.20
2017,05,04,16,45,22.00
2017,05,04,16,46,21.80
2017,05,04,16,47,21.60
2017,05,04,16,48,21.50
2017,05,04,16,49,21.40
2017,05,04,16,50,21.30
2017,05,04,16,51,21.20
2017,05,04,16,52,21.00
2017,05,04,16,53,20.90
2017,05,04,16,54,20.80
2017,05,04,16,55,20.60
2017,05,04,16,56,20.60
2017,05,04,16,57,20.50
2017,05,04,16,58,20.40
2017,05,04,16,59,20.20
2017,05,04,17,00,20.10
2017,05,04,17,01,20.00
2017,05,04,17,02,19.90
2017,05,04,17,03,19.90
2017,05,04,17,04,19.90
2017,05,04,17,05,19.90
2017,05,04,17,06,19.90
2017,05,04,17,07,19.90
2017,05,04,17,08,19.90
2017,05,04,17,09,19.90
2017,05,04,17,10,19.90
2017,05,04,17,11,19.80
2017,05,04,17,12,19.70
2017,05,04,17,13,19.70
2017,05,04,17,14,19.60
2017,05,04,17,15,19.60
2017,05,04,17,16,19.50
2017,05,04,17,17,19.50
2017,05,04,17,18,19.50
2017,05,04,17,19,19.50